[[{"header":{"parameterUnit":"m.s-1","parameterCategory":1,"la1":30.2991,"la2":30.254,"lo1":-89.0895,"lo2":-89.0444,"dy":0.0017,"dx":0.0017,"nx":28,"ny":28,"refTime":"2023-04-05T15:00:00:Z","depth":0,"parameterNumber":2,"parameterNumberName":"U-component_of_WINDS"},"data":[0,0,0,0,0,0,0,0,0,0,0,0,0,0,0,0,0,0,0,0,0,0,0,0,0,0,0,0,0,0,0,0,0,0,0,0,0,0,0,0,0,0,0,0,0,0,0,0,0,0,0,0,0,0,0,0,0,0,-3.4676,-3.4677,0,-3.4802,-3.4803,-3.4804,-3.4821,-3.482,-3.4819,-3.4818,-3.495,-3.4955,-3.4959,0,0,0,0,0,0,0,0,0,0,0,0,0,-3.4455,-3.4459,-3.4676,-3.4677,-3.4679,-3.4801,-3.4803,-3.4805,-3.4822,-3.482,-3.4819,-3.4817,-3.4949,-3.4954,-3.496,0,0,0,0,0,0,0,0,0,0,0,0,0,-3.4563,-3.446,-3.4676,-3.4702,-3.4706,-3.4801,-3.4803,-3.4805,-3.4822,-3.482,-3.4818,-3.4817,-3.4947,-3.4953,-3.496,-3.5039,0,0,-3.4982,-3.4985,0,0,0,0,0,0,0,0,-3.4556,-3.4571,-3.4697,-3.47,-3.4705,-3.4794,-3.4774,-3.4884,-3.4822,-3.4778,-3.4818,-3.4816,-3.49,-3.491,-3.4938,-3.5045,-3.5051,-3.4982,-3.4986,-3.4989,-3.4991,0,0,0,0,0,0,0,-3.4549,-3.4565,-3.4726,-3.4698,-3.4703,-3.4709,-3.4722,-3.4795,-3.4848,-3.4782,-3.4783,-3.4798,-3.4902,-3.4931,-3.4941,-3.5053,-3.4982,-3.4988,-3.4993,-3.4995,-3.5233,-3.5235,0,0,0,0,0,0,-3.4536,-3.4559,-3.4722,-3.4729,-3.4624,-3.4714,-3.4729,-3.4767,-3.4847,-3.4857,-3.4799,-3.4798,-3.492,-3.4933,-3.4946,-3.5044,-3.4989,-3.4996,-3.5,-3.5231,-3.5233,-3.5235,0,0,0,0,0,0,-3.4531,-3.455,-3.4717,-3.4645,-3.4666,-3.472,-3.4762,-3.4771,-3.48,-3.486,-3.487,-3.4819,-3.4919,-3.4936,-3.5016,-3.5049,-3.4999,-3.5005,-3.5228,-3.5231,-3.5234,-3.5239,0,0,0,0,0,0,-3.4525,-3.4549,-3.4578,-3.4645,-3.467,-3.4783,-3.4764,-3.4774,-3.4812,-3.4811,-3.4881,-3.4891,-3.4919,-3.5005,-3.5023,-3.5057,-3.5011,-3.5225,-3.523,-3.5233,-3.5237,-3.5242,-3.5247,0,0,0,0,0,-3.4517,-3.4575,-3.4579,-3.4599,-3.4708,-3.4785,-3.4799,-3.4829,-3.4814,-3.4845,-3.4884,-3.4889,-3.5042,-3.5013,-3.5033,-3.507,-3.5223,-3.5228,-3.5233,-3.5234,-3.5241,-3.5247,0,0,0,0,0,0,-3.4511,-3.4584,-3.459,-3.4671,-3.4721,-3.4787,-3.4827,-3.4836,-3.4892,-3.489,-3.4926,-3.4941,-3.5019,-3.5053,-3.5019,-3.5151,-3.5132,-3.5141,-3.5126,-3.5133,-3.5139,-3.5128,-3.5017,0,0,0,0,0,-3.4519,-3.4574,-3.4636,-3.4702,-3.4727,-3.4772,-3.4807,-3.4826,-3.488,-3.4902,-3.4946,-3.4999,-3.506,-3.5099,-3.5157,-3.5242,-3.5258,-3.5278,-3.5283,-3.5287,-3.5294,-3.5342,-3.5351,-3.5251,-3.5251,-3.5251,0,0,-3.4537,-3.4583,-3.4616,-3.4702,-3.4743,-3.4801,-3.479,-3.4851,-3.4895,-3.4912,-3.4989,-3.5024,-3.5086,-3.5168,-3.5207,-3.5199,-3.5326,-3.5293,-3.5296,-3.5301,-3.5348,-3.5357,-3.5366,-3.5254,-3.5254,-3.5253,0,0,-3.4597,-3.4638,-3.4698,-3.4739,-3.4801,-3.4832,-3.4846,-3.4911,-3.4934,-3.5012,-3.5026,-3.508,-3.5182,-3.5226,-3.5262,-3.5341,-3.5348,-3.5359,-3.5387,-3.5433,-3.5441,-3.5448,-3.5476,-3.5486,-3.5366,-3.5366,-3.5366,0,-3.4611,-3.4697,-3.4727,-3.4788,-3.4826,-3.4843,-3.4904,-3.4943,-3.5022,-3.5049,-3.5038,-3.5168,-3.5211,-3.5304,-3.5324,-3.5352,-3.537,-3.5351,-3.5437,-3.5445,-3.5452,-3.5479,-3.549,-3.5367,-3.5367,-3.5367,-3.5367,0,-3.4711,-3.4771,-3.4812,-3.4886,-3.4928,-3.4989,-3.503,-3.507,-3.5086,-3.5118,-3.5198,-3.525,-3.532,-3.5344,-3.536,-3.544,-3.5433,-3.543,-3.5411,-3.5462,-3.5488,-3.5499,-3.5368,-3.5368,-3.5368,-3.5368,0,0,-3.477,-3.4861,-3.4875,-3.491,-3.498,-3.5028,-3.509,-3.5157,-3.5191,-3.5245,-3.5299,-3.5386,-3.5384,-3.5425,-3.5446,-3.5487,-3.5546,-3.5479,-3.5481,-3.5489,-3.5638,-3.5639,-3.565,-3.5552,-3.5555,-3.5556,-3.5632,0,-3.4839,-3.4948,-3.4978,-3.5071,-3.5127,-3.5145,-3.52,-3.525,-3.5282,-3.5335,-3.5371,-3.5432,-3.5425,-3.5449,-3.549,-3.553,-3.5576,-3.5525,-3.5603,-3.5606,-3.5585,-3.5664,-3.5665,-3.5734,-3.5643,-3.5644,-3.5646,0,-3.4933,-3.4987,-3.5086,-3.515,-3.5175,-3.5223,-3.5287,-3.5338,-3.5395,-3.5416,-3.5462,-3.548,-3.5547,-3.5526,-3.5619,-3.5584,-3.5618,-3.5643,-3.5646,-3.5654,-3.5628,-3.5673,-3.5757,-3.5767,-3.5662,-3.5661,-3.566,0,-3.4965,-3.5064,-3.5136,-3.5165,-3.5241,-3.5275,-3.5308,-3.5364,-3.5403,-3.546,-3.5486,-3.5551,-3.5586,-3.5637,-3.5673,-3.5654,-3.5764,-3.5745,-3.5783,-3.5782,-3.5804,-3.5802,-3.5894,-3.5828,-3.5828,-3.5827,-3.5827,0,-3.5038,-3.5097,-3.5151,-3.5195,-3.5263,-3.5298,-3.5365,-3.5399,-3.5449,-3.5502,-3.5522,-3.5571,-3.5616,-3.5671,-3.57,-3.5774,-3.579,-3.5809,-3.5816,-3.5806,-3.5804,-3.5828,-3.5824,-3.583,-3.583,-3.5829,-3.5829,0,-3.5085,-3.5124,-3.5203,-3.5269,-3.5287,-3.5334,-3.5391,-3.5435,-3.5468,-3.5534,-3.5552,-3.5604,-3.5671,-3.5712,-3.5797,-3.5816,-3.5896,-3.5902,-3.5876,-3.5879,-3.5915,-3.591,-3.6025,-3.6042,-3.5965,-3.5965,-3.5966,0,-3.5128,-3.5174,-3.5245,-3.528,-3.5314,-3.5372,-3.5411,-3.5448,-3.5489,-3.5559,-3.5595,-3.5662,-3.5718,-3.5824,-3.587,-3.5935,-3.5942,-3.5978,-3.5952,-3.5941,-3.5942,-3.5938,-3.5943,-3.5982,-3.5982,-3.5983,-3.5983,0,-3.5201,-3.5218,-3.5273,-3.5335,-3.5382,-3.5433,-3.5484,-3.5513,-3.5559,-3.5604,-3.5671,-3.5714,-3.58,-3.5867,-3.5937,-3.5973,-3.5987,-3.5991,-3.6003,-3.5994,-3.5977,-3.5986,-3.5887,-3.5988,-3.5988,-3.5987,-3.5987,-3.5987,-3.5247,-3.5289,-3.5345,-3.5406,-3.5448,-3.5496,-3.5541,-3.5579,-3.5636,-3.5707,-3.5727,-3.5797,-3.5856,-3.595,-3.5988,-3.6045,-3.604,-3.6058,-3.6062,-3.6066,-3.6066,-3.5968,-3.6058,-3.6058,-3.6058,-3.6058,-3.6058,0,-3.532,-3.5357,-3.5413,-3.5484,-3.5532,-3.5539,-3.5597,-3.5637,-3.5699,-3.5751,-3.5806,-3.5884,-3.5949,-3.6001,-3.6069,-3.6104,-3.6112,-3.6121,-3.6118,-3.6126,-3.6067,-3.6049,-3.6113,-3.6113,-3.6113,-3.6113,-3.6113,-3.6113,-3.5364,-3.5435,-3.5458,-3.5551,-3.5589,-3.5657,-3.5689,-3.5734,-3.5776,-3.5861,-3.5915,-3.5948,-3.6001,-3.6073,-3.6134,-3.6147,-3.6171,-3.6179,-3.6193,-3.6137,-3.613,-3.6125,-3.6108,-3.6184,-3.6184,-3.6248,-3.6249,-3.6249]},{"header":{"parameterUnit":"m.s-1","parameterCategory":1,"la1":30.2991,"la2":30.254,"lo1":-89.0895,"lo2":-89.0444,"dy":0.0017,"dx":0.0017,"nx":28,"ny":28,"refTime":"2023-04-05T15:00:00:Z","depth":0,"parameterNumber":3,"parameterNumberName":"V-component_of_WINDS"},"data":[0,0,0,0,0,0,0,0,0,0,0,0,0,0,0,0,0,0,0,0,0,0,0,0,0,0,0,0,0,0,0,0,0,0,0,0,0,0,0,0,0,0,0,0,0,0,0,0,0,0,0,0,0,0,0,0,0,0,4.1136,4.1137,0,4.1187,4.1188,4.1188,4.1203,4.1203,4.1203,4.1202,4.1255,4.1257,4.1259,0,0,0,0,0,0,0,0,0,0,0,0,0,4.1056,4.1057,4.1136,4.1137,4.1138,4.1187,4.1188,4.1188,4.1203,4.1203,4.1203,4.1202,4.1255,4.1257,4.1259,0,0,0,0,0,0,0,0,0,0,0,0,0,4.1097,4.1058,4.1136,4.1151,4.1153,4.1187,4.1188,4.1189,4.1203,4.1203,4.1202,4.1202,4.1254,4.1257,4.1259,4.1282,0,0,4.1267,4.1268,0,0,0,0,0,0,0,0,4.1095,4.11,4.1148,4.115,4.1152,4.1188,4.1179,4.122,4.1203,4.1184,4.1202,4.1202,4.1233,4.1238,4.1248,4.1285,4.1287,4.1267,4.1268,4.1269,4.127,0,0,0,0,0,0,0,4.1092,4.1098,4.1156,4.1149,4.1151,4.1156,4.1162,4.1187,4.121,4.1186,4.1187,4.1193,4.1234,4.1246,4.1249,4.1288,4.1267,4.1269,4.1271,4.1272,4.135,4.1351,0,0,0,0,0,0,4.1086,4.1095,4.1155,4.1158,4.1122,4.1158,4.1164,4.1177,4.121,4.1215,4.1193,4.1193,4.1242,4.1246,4.1251,4.1283,4.1269,4.1272,4.1273,4.135,4.135,4.1351,0,0,0,0,0,0,4.1084,4.1091,4.1153,4.1127,4.1135,4.116,4.1174,4.1178,4.1189,4.1216,4.122,4.12,4.1241,4.1248,4.1275,4.1285,4.1273,4.1275,4.1349,4.135,4.1351,4.1345,0,0,0,0,0,0,4.1082,4.109,4.1099,4.1127,4.1137,4.1175,4.1175,4.118,4.1194,4.1194,4.1223,4.1228,4.1242,4.1272,4.1278,4.1288,4.1277,4.1348,4.1349,4.135,4.1345,4.1346,4.1347,0,0,0,0,0,4.1079,4.1095,4.1099,4.1106,4.1147,4.1175,4.1181,4.1196,4.1194,4.1203,4.1221,4.1227,4.1283,4.1274,4.1281,4.1293,4.1348,4.1349,4.135,4.1344,4.1345,4.1347,0,0,0,0,0,0,4.1066,4.1098,4.1104,4.1129,4.1149,4.1178,4.1189,4.1197,4.1218,4.1218,4.1237,4.1243,4.127,4.1284,4.1274,4.1319,4.1316,4.1318,4.1308,4.131,4.1311,4.1307,4.1279,0,0,0,0,0,4.1066,4.1086,4.1113,4.1133,4.1143,4.1165,4.1177,4.1188,4.121,4.1218,4.1238,4.1259,4.1283,4.1297,4.1319,4.1347,4.1355,4.1359,4.136,4.136,4.1363,4.1381,4.1384,4.1355,4.1355,4.1355,0,0,4.1067,4.1087,4.1098,4.1131,4.1148,4.1169,4.1172,4.1193,4.1209,4.1222,4.1249,4.1265,4.129,4.1319,4.1332,4.1331,4.1373,4.1362,4.1362,4.1364,4.1383,4.1386,4.1388,4.1356,4.1356,4.1356,0,0,4.1078,4.1095,4.1114,4.1132,4.1158,4.1173,4.1177,4.1205,4.1216,4.1244,4.1255,4.1275,4.1313,4.1332,4.1346,4.1369,4.1376,4.1376,4.1381,4.1399,4.1401,4.1403,4.1413,4.1416,4.1378,4.1378,4.1378,0,4.1075,4.1107,4.1123,4.1145,4.116,4.1173,4.1194,4.121,4.1243,4.1253,4.1252,4.1302,4.132,4.1355,4.136,4.1371,4.1379,4.1372,4.1399,4.1402,4.1404,4.1414,4.1417,4.1378,4.1378,4.1378,4.1378,0,4.1103,4.1125,4.1137,4.1169,4.1186,4.1207,4.1228,4.1243,4.1253,4.1268,4.1298,4.1321,4.1349,4.1358,4.1367,4.1395,4.1394,4.1396,4.1393,4.1406,4.1416,4.142,4.1378,4.1378,4.1378,4.1378,0,0,4.1106,4.1148,4.1153,4.1168,4.12,4.1217,4.124,4.1268,4.1282,4.1305,4.1326,4.1359,4.1362,4.1379,4.1391,4.1406,4.1425,4.1407,4.1408,4.1411,4.1459,4.1458,4.1462,4.143,4.1431,4.1431,4.1458,0,4.1122,4.1163,4.118,4.1214,4.1235,4.125,4.127,4.1292,4.1308,4.133,4.1348,4.1372,4.1373,4.1384,4.14,4.1419,4.1435,4.1418,4.1451,4.1452,4.1445,4.1467,4.1465,4.1489,4.1461,4.1462,4.1462,0,4.1146,4.117,4.1206,4.1237,4.1247,4.1265,4.1294,4.1314,4.134,4.1351,4.1371,4.1383,4.1409,4.1405,4.1443,4.1431,4.1446,4.1458,4.146,4.1464,4.1458,4.1473,4.1496,4.15,4.1468,4.1468,4.1467,0,4.1147,4.1188,4.1215,4.1228,4.1265,4.1277,4.1294,4.132,4.1337,4.1362,4.1374,4.1402,4.1417,4.144,4.146,4.1454,4.1497,4.1493,4.1508,4.1507,4.1516,4.1515,4.1543,4.1524,4.1524,4.1524,4.1524,0,4.1163,4.1185,4.1216,4.1233,4.1259,4.1279,4.1305,4.1322,4.1346,4.1368,4.1382,4.1402,4.1427,4.1451,4.1467,4.1497,4.1504,4.1515,4.1519,4.1514,4.1513,4.1524,4.1524,4.1525,4.1525,4.1525,4.1525,0,4.1168,4.1189,4.122,4.1254,4.1263,4.1281,4.131,4.1328,4.1345,4.1373,4.1381,4.1408,4.1438,4.146,4.1498,4.1509,4.1542,4.1546,4.1533,4.1535,4.1549,4.1548,4.1586,4.1593,4.1568,4.1568,4.1569,0,4.1177,4.1195,4.123,4.1246,4.1262,4.1287,4.1305,4.1327,4.1345,4.1379,4.1393,4.1424,4.1449,4.1496,4.1521,4.1551,4.1556,4.1568,4.1561,4.1556,4.1558,4.1557,4.156,4.1568,4.1569,4.1569,4.1569,0,4.1192,4.1203,4.1227,4.1257,4.1278,4.1302,4.1327,4.1339,4.1366,4.1386,4.1416,4.1436,4.1477,4.1508,4.1541,4.1559,4.1569,4.1571,4.1576,4.1572,4.1564,4.157,4.1537,4.157,4.157,4.157,4.157,4.157,4.12,4.1218,4.1246,4.1274,4.1296,4.1319,4.1338,4.1359,4.1385,4.1419,4.1431,4.1463,4.1493,4.1539,4.1557,4.1584,4.1584,4.1591,4.1593,4.1595,4.1595,4.156,4.159,4.159,4.159,4.159,4.159,0,4.1217,4.1237,4.1263,4.1298,4.1321,4.1329,4.1357,4.1376,4.1404,4.1431,4.1456,4.1493,4.1524,4.1552,4.1585,4.1601,4.1607,4.1609,4.1609,4.1613,4.1592,4.1585,4.1604,4.1604,4.1604,4.1604,4.1604,4.1604,4.1229,4.1259,4.1274,4.1316,4.1336,4.1368,4.1384,4.1406,4.1428,4.1469,4.1495,4.1513,4.1541,4.1577,4.1606,4.1614,4.1626,4.1627,4.1636,4.1616,4.1614,4.1613,4.1606,4.1629,4.1629,4.1655,4.1655,4.1656]}]]